Hauptseite
METAR-TAF:

METAR-TAF

Flughäfen :

Flughafen Forlì

Forlì, Italien

Breite: 44-12N, Länge: 012-04E, Höhe: 27 m

Beobachtung

Neuester Wetterbericht von vor 1 Stunde und 55 Minuten, um 16:50 UTC
Wind 3 kt aus unterschiedlichen Richtungen
Temperatur 8°C
Luftfeuchtigkeit 76%
Luftdruck 1017 hPa
Sichtweite 10 km oder mehr
Aufgelockert bewölkt in der Höhe von 1500 ft
Durchbrochene Bewölkung in der Höhe von 3500 ft
Leichtregen

METAR: LIPK 181650Z VRB03KT 9999 -RA SCT015 BKN035 08/04 Q1017

Zeit: 19:45 (18:45 UTC)


TAF: fehlend

Wetterbeobachtungen und Prognosen von mehr als 4000 Flughäfen (METAR und TAF Bericht).

Die verfügbaren Stationen werden durch gelbe und rote Markierungen auf der Karte dargestellt.

Führen Sie die Maus auf sie, um den Namen der Station zu sehen.

Darauf klicken, um die Beobachtung von Wetterbeobachtungen und Prognosen zu sehen.

Um die Karte zu ändern : klicken Sie auf den grünen Tasten mit einem schwarzen Kreuz Zum Vergrößern, auf den grünen Button mit einem Gedankenstrich zu verkleinern, oder auf die grünen Pfeile für benachbarte Karten.


METAR-TAF: